User: anonymous   Login
Location: Nairn
(57.5833°N, 3.8667°W)
Time: 10:12:32
(UTC+00:00)
Language:

Cosmos 2237 Rocket - Orbit

View from above orbital plane
View from above orbital plane
View from above satellite
View from above satellite

Ground track
Ground track

The orbit data is extracted from the following two-line orbital elements,

1 22566U 93016B   20299.89947018 +.00000040 +00000-0 +45285-4 0  9990
2 22566 071.0093 011.9324 0008314 061.5519 298.6440 14.14963058424785
Epoch (UTC): 25 October 2020 21:35:14
Eccentricity: 0.0008314
inclination: 71.0093°
perigee height: 836 km
apogee height: 848 km
right ascension of ascending node: 11.9324°
argument of perigee: 61.5519°
revolutions per day: 14.14963058
mean anomaly at epoch: 298.6440°
orbit number at epoch: 42478

The dashed part of the orbit path shows where the satellite is in the earth's shadow,  

DLR